Location: Standeford and Andreas Observatories
(44.1397°N, 93.9969°W)
Time: 07:42:25
(UTC-05:00)

Cosmos 1500 Rocket - Visible Passes

Search period start: 29 July 2014 00:00
Search period end: 08 August 2014 00:00
Orbit: 604 x 635 km, 82.5° (Epoch: 28 July)

Date Brightness Start Highest point End Pass type
(mag) Time Alt. Az. Time Alt. Az. Time Alt. Az.
29 Jul 4.9 01:29:34 10° N 01:33:14 31° ENE 01:33:14 31° ENE visible
29 Jul 5.2 03:07:45 10° NW 03:10:23 22° WNW 03:10:23 22° WNW visible
30 Jul 4.2 01:46:45 10° N 01:50:23 52° NE 01:50:23 52° NE visible
30 Jul 5.8 03:26:27 10° WNW 03:27:32 12° WNW 03:27:32 12° WNW visible
31 Jul 6.1 00:28:55 10° NE 00:30:04 11° ENE 00:30:24 11° ENE visible
31 Jul 4.1 02:04:10 10° NNW 02:07:33 52° NNW 02:07:33 52° NNW visible
01 Aug 5.6 00:44:42 10° NNE 00:47:34 19° ENE 00:47:34 19° ENE visible
01 Aug 4.8 02:21:51 10° NNW 02:24:43 32° NW 02:24:43 32° NW visible
02 Aug 5.0 01:01:34 10° N 01:04:46 31° NE 01:04:46 31° NE visible
02 Aug 5.5 02:39:51 10° NW 02:41:54 19° WNW 02:41:54 19° WNW visible
03 Aug 4.5 01:18:46 10° N 01:21:58 45° NNE 01:21:58 45° NNE visible
03 Aug 6.0 02:58:43 10° WNW 02:59:07 11° WNW 02:59:07 11° WNW visible
04 Aug 6.0 00:00:35 10° NE 00:02:02 12° ENE 00:02:02 12° ENE visible
04 Aug 4.6 01:36:13 10° NNW 01:39:10 42° NNW 01:39:10 42° NNW visible
05 Aug 5.5 00:16:39 10° NNE 00:19:15 20° ENE 00:19:15 20° ENE visible
05 Aug 5.2 01:53:55 10° NNW 01:56:24 28° NW 01:56:24 28° NW visible
06 Aug 5.0 00:33:33 10° N 00:36:29 31° NE 00:36:29 31° NE visible
06 Aug 5.7 02:11:58 10° NW 02:13:38 17° WNW 02:13:38 17° WNW visible
07 Aug 4.7 00:50:47 10° N 00:53:44 41° NNE 00:53:44 41° NNE visible
07 Aug 5.9 23:32:21 10° NE 23:33:50 12° ENE 23:33:50 12° ENE visible
